Location: Rochester
(51.3833°N, 0.5167°E)
Time: 00:32:27
(UTC+00:00)

Daily predictions for brighter satellites

Satellite Brightness Start Highest point End
(mag) Time Altitude Azimuth Time Altitude Azimuth Time Altitude Azimuth
Meteor 1-24 Rocket 3.9 00:02:18 21° SSW 00:06:19 74° WNW 00:11:57 10° N
USA 234 4.0 00:00:12 10° ENE 00:06:34 56° N 00:12:56 10° W
Cosmos 2227 Rocket 2.7 00:05:20 23° S 00:08:32 46° ESE 00:13:56 10° NE
Cosmos 304 Rocket 3.8 00:06:24 22° SSW 00:09:30 78° WNW 00:14:18 10° NNE
Cosmos 1892 2.5 00:09:05 33° S 00:10:30 69° E 00:14:01 10° NNE
Cosmos 332 Rocket 4.1 00:09:47 25° S 00:12:26 55° ESE 00:17:14 10° NNE
Cosmos 2181 Rocket 4.1 00:06:45 10° NNW 00:12:54 66° W 00:16:56 22° S
Cosmos 1980 4.1 00:07:59 10° NW 00:13:27 49° WSW 00:16:41 23° S
CENTAUR R/B 3.2 00:12:18 22° SSE 00:15:25 37° ESE 00:21:42 10° NE
GEOS 3 Rocket 3.9 00:14:04 10° NE 00:19:07 50° SE 00:22:03 23° SSW
H-2A R/B 2.0 00:17:24 10° NNE 00:21:43 85° WNW 00:24:02 26° SSW
Cosmos 1538 Rocket 4.1 00:17:44 10° NNW 00:22:57 74° ENE 00:27:12 16° SSE
Cosmos 1503 Rocket 4.2 00:19:44 19° SW 00:23:35 71° WNW 00:28:54 10° NNE
Cosmos 1777 Rocket 4.1 00:21:13 21° SSW 00:24:48 81° WNW 00:30:08 10° NNE
SL-4 R/B 2.7 00:21:29 10° W 00:25:11 33° SSW 00:26:25 27° S
Cosmos 2151 Rocket 4.1 00:22:41 10° NNW 00:26:55 47° W 00:29:10 25° SSW
Cosmos 1174 4.4 00:23:36 10° NW 00:28:28 48° WSW 00:30:27 27° S
Cosmos 2297 Rocket 2.3 00:24:22 18° SW 00:28:37 78° WNW 00:34:19 10° NNE
NOSS 8 (A) 4.2 00:25:45 10° NW 00:28:40 59° SW 00:30:08 29° SSE
Cosmos 2074 Rocket 4.0 00:24:31 22° S 00:28:44 88° E 00:35:00 10° N
Cosmos 2219 4.0 00:27:36 20° SSE 00:30:54 39° ESE 00:36:04 10° NE
Cosmos 2084 Rocket 3.4 00:29:51 26° SSW 00:32:08 64° SE 00:36:14 10° NE
ALOS 2 4.4 00:30:59 14° SW 00:33:07 19° W 00:36:17 10° NW
Okean 2 Rocket 3.7 00:29:26 10° NNW 00:33:43 45° W 00:36:03 24° SSW
Cosmos 1455 Rocket 3.5 00:30:02 10° N 00:34:26 58° ENE 00:37:36 18° SSE
ATLAS CENTAUR R/B 4.2 00:37:08 10° NW 00:39:02 13° NNW 00:40:57 10° NNE
Aureole 1 Rocket 4.0 00:38:34 20° SSE 00:40:20 31° ESE 00:44:12 10° NE
Cosmos 1825 2.4 00:42:47 27° SW 00:44:22 50° WNW 00:47:44 10° N
Cosmos 1674 Rocket 4.0 00:41:51 22° SW 00:44:28 51° WNW 00:48:43 10° N
Cosmos 1378 Rocket 4.4 00:43:13 20° SW 00:45:54 42° WNW 00:50:07 10° N
Cosmos 1025 Rocket 3.0 00:50:34 24° S 00:53:07 88° E 00:57:28 10° N
Cosmos 2221 Rocket 4.3 00:51:16 20° SW 00:54:03 45° WNW 00:58:21 10° N
BREEZE-M DEB (TANK) 2.8 00:51:09 10° W 00:57:14 40° SSW 00:58:59 19° SSE
Resurs 1-4 Rocket 3.9 00:54:13 10° NE 00:58:18 22° E 01:02:23 10° SE
NOSS 3-2 (A) 3.8 00:56:57 21° S 01:00:11 45° ESE 01:06:02 10° NE
Cosmos 1606 3.6 00:57:40 10° N 01:01:05 40° ENE 01:04:04 13° SE
Nadezhda 3 Rocket 4.2 00:55:34 10° NNW 01:01:45 61° W 01:06:12 19° SSW
Cosmos 2263 Rocket 2.7 00:58:49 19° S 01:02:30 47° ESE 01:07:51 10° NE
CZ-4C R/B 2.7 00:58:21 10° WSW 01:03:04 54° NW 01:09:07 10° NE
Cosmos 1898 Rocket 4.1 01:01:19 19° S 01:04:47 47° ESE 01:09:44 10° NE
COSMOS 2455 3.8 00:59:41 10° WSW 01:05:26 44° NW 01:11:14 10° NNE
Orbus 7S? 2.8 01:03:16 10° WNW 01:05:56 75° NNE 01:09:24 10° ESE
MOZ.5/SAFIR/RUBIN 5/SL-8 4.0 01:05:48 13° SSE 01:09:58 71° ENE 01:14:36 10° N
BlueWalker 3 2.1 01:09:21 10° W 01:13:05 70° N 01:16:50 10° ENE
Helios 1A Rocket 2.7 01:12:04 21° S 01:14:27 70° WSW 01:18:16 10° NNW
Cosmos 1461 4.2 01:14:31 17° SSE 01:16:33 26° ESE 01:19:49 10° ENE
Cosmos 2366 rocket 4.5 01:11:40 14° SSE 01:17:03 57° E 01:23:09 10° NNE
BREEZE-M DEB (TANK) 2.9 01:22:04 10° W 01:25:57 11° SE 01:26:08 10° SE
Cosmos 1680 Rocket 3.5 01:28:07 10° NNW 01:33:22 88° WSW 01:38:35 10° SSE
SL-19 R/B 3.8 01:30:25 10° N 01:33:29 58° WNW 01:35:06 23° SW
Cosmos 1818 3.5 01:28:53 10° NW 01:34:22 70° SW 01:39:47 10° SSE
In-Cosmos 22 Rocket 4.3 01:29:58 17° SSW 01:34:30 83° WNW 01:40:23 10° NNE
Cosmos 2112 Rocket 4.0 01:30:16 10° NNW 01:35:30 84° ENE 01:40:42 10° SSE
SL-16 R/B 2.8 01:31:47 10° NW 01:37:01 38° WSW 01:41:09 15° S
SL-16 R/B 3.7 01:33:59 10° SE 01:39:51 45° ENE 01:45:44 10° N
Cosmos 1603 4.3 01:36:14 10° NNW 01:41:59 63° NE 01:47:40 10° SE
Cosmos 2237 Rocket 4.2 01:41:38 10° WNW 01:43:22 11° W 01:45:07 10° WSW
Cosmos 1869 3.1 01:40:13 10° NNW 01:43:54 64° W 01:46:41 16° S
Cosmos 1544 Rocket 3.6 01:41:36 10° NNW 01:46:03 74° W 01:49:58 13° S
Cosmos 292 Rocket 4.0 01:43:03 16° SW 01:46:48 66° WNW 01:51:37 10° NNE
SL-8 Rocket 4.0 01:43:18 15° SSW 01:48:32 81° W 01:54:47 10° N
USA 234 3.8 01:42:44 10° E 01:49:10 63° NNE 01:55:38 10° WNW
Cosmos 2082 3.7 01:45:35 16° SSW 01:50:13 87° WNW 01:55:54 10° NNE
IDEFIX/ARIANE 42P 2.8 01:45:14 10° NNE 01:50:30 71° ESE 01:55:13 13° S
Cosmos 2228 3.0 01:47:16 10° NNW 01:51:37 85° W 01:55:50 10° S
Cosmos 1943 3.1 01:46:36 10° NNW 01:52:14 80° WSW 01:57:51 10° SSE
Cosmos 2227 Rocket 3.2 01:47:23 10° WSW 01:52:42 40° NW 01:58:03 10° NNE
CZ-2C R/B 3.8 01:50:10 10° NNE 01:55:31 50° E 02:00:33 10° S
H-2A R/B 4.4 01:54:37 10° NNW 01:56:44 14° NW 01:58:48 10° W
GEOS 3 Rocket 4.5 01:52:09 10° NE 01:57:07 47° NW 02:02:00 10° WSW
Cosmos 1437 Rocket 3.9 01:53:41 10° SSE 01:57:14 37° E 02:00:46 10° NNE
CZ-2C R/B 2.6 01:52:05 10° SSE 01:57:22 85° WSW 02:02:49 10° NNW
CZ-2D R/B 2.5 01:53:15 10° NNE 01:58:34 60° ESE 02:03:47 10° S
Cosmos 1975 Rocket 3.9 01:58:43 14° SW 02:02:03 38° WNW 02:06:12 10° N
Meteor 1-11 4.5 01:57:52 14° SSW 02:02:50 64° WNW 02:08:38 10° N
Cosmos 1727 Rocket 4.1 01:57:09 10° N 02:03:30 86° E 02:09:52 10° S
COBE Rocket 4.2 01:59:56 10° N 02:05:02 66° WNW 02:09:38 13° SSW
CENTAUR R/B 3.0 01:59:42 10° WSW 02:05:40 64° NW 02:13:08 10° NE
H-2A R/B 3.3 02:04:26 10° NNE 02:08:26 90° NW 02:12:02 13° SSW
USA 238 DEB 4.4 02:06:34 10° S 02:12:16 41° ESE 02:18:30 10° NE
USA 238 4.4 02:06:35 10° S 02:12:20 41° ESE 02:18:33 10° NE
Cosmos 2297 Rocket 4.2 02:09:17 10° W 02:13:36 22° NW 02:17:56 10° NNE
Cosmos 2219 3.9 02:09:35 10° WSW 02:14:59 45° NW 02:20:23 10° NNE
NPP 3.7 02:09:38 10° NNE 02:15:03 80° WNW 02:20:16 11° SSW
Cosmos 2341 Rocket 4.5 02:13:09 12° SW 02:18:43 49° WNW 02:24:45 10° N
Cosmos 1606 Rocket 3.8 02:17:08 10° N 02:21:36 76° ENE 02:26:02 10° SSE
ASTEX 1 3.7 02:16:48 10° SSE 02:21:37 67° E 02:26:27 10° N
Aureole 1 Rocket 4.3 02:20:09 10° WSW 02:23:30 29° NW 02:27:37 10° NNE
Cosmos 921 Rocket 3.0 02:19:34 10° NNW 02:23:52 88° ENE 02:28:03 10° SSE
Cosmos 1867 4.4 02:18:47 10° S 02:23:53 43° ESE 02:29:03 10° NE
Cosmos 2227 4.4 02:18:50 11° SSW 02:24:24 73° ESE 02:30:11 10° NNE
ADEOS II 2.3 02:20:30 10° NNE 02:25:45 69° ESE 02:30:58 10° S
Cosmos 494 Rocket 4.0 02:22:01 10° NNW 02:27:16 79° WSW 02:32:30 10° SSE
Cosmos 1536 Rocket 3.7 02:27:08 10° SSW 02:31:32 65° WNW 02:35:57 10° N
Cosmos 1900 4.5 02:28:54 10° SSW 02:33:57 81° SE 02:39:03 10° NE
Cosmos 1606 4.4 02:33:05 10° NW 02:35:29 17° W 02:37:52 10° SW
Cosmos 1726 Rocket 3.7 02:32:44 10° N 02:37:13 81° E 02:41:38 10° SSE
Resurs 1-4 Rocket 2.3 02:33:20 10° N 02:38:34 66° WNW 02:43:47 10° SSW
Cosmos 724 4.3 02:36:31 10° NW 02:42:21 89° NE 02:48:12 10° SE
Cosmos 1937 Rocket 4.2 02:38:34 10° SW 02:43:35 44° WNW 02:48:37 10° NNE
Iridium 4 Rocket 4.1 02:41:43 10° N 02:45:58 48° E 02:50:31 10° SSE
Cosmos 2263 Rocket 3.2 02:41:22 10° WSW 02:46:34 38° NW 02:51:47 10° NNE
NOSS 3-2 (A) 4.1 02:45:33 10° WSW 02:50:55 51° NNW 02:57:26 10° NE
BlueWalker 3 2.1 02:47:42 10° WNW 02:51:27 74° NNE 02:55:12 10° E
Cosmos 1812 2.7 02:48:44 10° N 02:52:20 75° E 02:55:54 10° SSE
Cosmos 1821 Rocket 4.3 02:46:44 10° SSW 02:52:42 56° WNW 02:58:46 10° N
CZ-4C R/B 4.3 02:48:05 10° WNW 02:52:49 29° N 02:58:37 10° NE
Cosmos 1461 3.4 02:50:42 10° WSW 02:54:32 47° NW 02:58:18 10° NNE
USA 267 3.9 02:48:24 10° ENE 02:54:41 46° SE 03:00:54 10° SSW
Cosmos 2058 4.0 02:51:30 10° SSE 02:55:22 44° E 02:59:16 10° NNE
NOSS 3-2 (C) 3.5 02:51:07 10° SW 02:56:32 77° NW 03:03:06 10° NE
BREEZE M DEB (TANK) 4.3 02:41:58 10° W 02:57:11 73° SSW 03:01:23 10° ESE
